Starlink 11386

operational
NORAD ID: 62098 Int'l Des: 2024-220 Owner: SPXS Country: US Constellation: starlink
LEOCIRCULAR

Über Starlink 11386

Beschreibung wird geladen...

Live-Position

3D-Globus wird geladen...

Nächste Überflüge

Höhenverlauf

Altitude vs Time

uPlot chart will show altitude changes over time

Zweizeiliger Elementsatz

1 62098U 24220L 26036.93844494 .00137908 00000-0 10595-2 0 9997
2 62098 42.9984 234.0919 0001710 271.8219 88.2453 15.70862887 69962
Epoch: 5. Feb. 2026 • Age: 8 hours

Aktueller Status

Höhe 359.9 km
Geschwindigkeit 7.70 km/s
Subsatellitenpunkt 40.96°N, 108.8°E
Startdatum 25. Nov. 2024
Alter 1.1 years
Typ internet

Technische Details

Klassifizierung Payload
Masse 960.00 kg
Trockenmasse 910.00 kg
Gesamtmasse 960.00 kg
Länge 0.30 m
Durchmesser 4.10 m
Spannweite 29.00 m
Form Box + pan
Hersteller SPXS
Bus-Typ Starlink V2MD
Phasenstatus In Orbit
Besitzer/Staat SPXS/US

Große Konstellationen

Loading constellations...